AUA729 LOWW-LQSA

Flight info

Callsign AUA729
Flight time 0h 46m
Altitude 31000
Route STEIN DCT NOHAT DCT KOPRY DCT LURID DCT BOSNA
Aircraft A320/M-SDE3FGHIRWY/LB1

Departure

Time 2026-05-04 11:35
Airport Vienna International Airport (LOWW)

Arrival

Time 2026-05-04 12:21
Airport Sarajevo International Airport (LQSA)
Time Latitude Longitude Altitude Speed Heading
2026-05-04 11:10 48.11652 16.56441 610 ft 0 kts 205°
2026-05-04 11:28 48.11636 16.56430 616 ft 5 kts 205°
2026-05-04 11:28 48.11590 16.56419 609 ft 9 kts 163°
2026-05-04 11:29 48.11553 16.56505 617 ft 12 kts 117°
2026-05-04 11:29 48.11510 16.56626 613 ft 14 kts 117°
2026-05-04 11:29 48.11466 16.56768 618 ft 16 kts 114°
2026-05-04 11:29 48.11420 16.56918 616 ft 16 kts 116°
2026-05-04 11:31 48.11641 16.57544 616 ft 9 kts 340°
2026-05-04 11:33 48.11987 16.57655 619 ft 13 kts 104°
2026-05-04 11:33 48.11963 16.57784 611 ft 9 kts 106°
2026-05-04 11:33 48.11918 16.57844 616 ft 7 kts 164°
2026-05-04 11:34 48.11909 16.57847 618 ft 3 kts 164°
2026-05-04 11:34 48.11733 16.57922 615 ft 60 kts 164°
2026-05-04 11:34 48.11115 16.58183 611 ft 120 kts 164°
2026-05-04 11:34 48.10177 16.58583 688 ft 157 kts 163°
2026-05-04 11:35 48.09136 16.59017 1371 ft 154 kts 165°
2026-05-04 11:35 48.08095 16.59467 2002 ft 159 kts 164°
2026-05-04 11:35 48.06967 16.59951 2395 ft 180 kts 166°
2026-05-04 11:35 48.05694 16.60485 2773 ft 199 kts 166°
2026-05-04 11:36 48.04277 16.61078 3162 ft 224 kts 167°
2026-05-04 11:36 48.02709 16.61734 3695 ft 242 kts 166°
2026-05-04 11:36 48.01062 16.62432 4528 ft 249 kts 167°
2026-05-04 11:36 47.99369 16.63143 5254 ft 257 kts 168°
2026-05-04 11:37 47.97590 16.63376 6133 ft 257 kts 184°
2026-05-04 11:37 47.95789 16.63273 6981 ft 260 kts 184°
2026-05-04 11:37 47.93964 16.63154 7749 ft 266 kts 184°
2026-05-04 11:37 47.92108 16.63031 8603 ft 268 kts 184°
2026-05-04 11:38 47.90240 16.62909 9426 ft 272 kts 184°
2026-05-04 11:38 47.88334 16.62789 10217 ft 276 kts 184°
2026-05-04 11:38 47.86360 16.62665 10610 ft 295 kts 184°
2026-05-04 11:38 47.84233 16.62530 10958 ft 314 kts 184°
2026-05-04 11:39 47.82025 16.62391 11560 ft 322 kts 184°
2026-05-04 11:39 47.79800 16.62253 12253 ft 325 kts 185°
2026-05-04 11:40 47.65888 16.61403 16349 ft 344 kts 184°
2026-05-04 11:41 47.63489 16.61250 16950 ft 349 kts 184°
2026-05-04 11:41 47.61048 16.61100 17531 ft 353 kts 184°
2026-05-04 11:41 47.58583 16.60949 18119 ft 356 kts 184°
2026-05-04 11:41 47.56110 16.60797 18741 ft 358 kts 183°
2026-05-04 11:42 47.53609 16.60643 19255 ft 360 kts 183°
2026-05-04 11:42 47.51091 16.60490 19817 ft 363 kts 185°
2026-05-04 11:42 47.48561 16.60336 20321 ft 367 kts 185°
2026-05-04 11:42 47.45985 16.60173 20769 ft 372 kts 185°
2026-05-04 11:43 47.43389 16.60007 21273 ft 376 kts 184°
2026-05-04 11:43 47.40748 16.59925 21695 ft 382 kts 181°
2026-05-04 11:43 47.38080 16.59988 22237 ft 385 kts 181°
2026-05-04 11:43 47.35392 16.60130 22749 ft 389 kts 180°
2026-05-04 11:44 47.32676 16.60302 23254 ft 392 kts 179°
2026-05-04 11:44 47.29942 16.60473 23711 ft 396 kts 179°
2026-05-04 11:44 47.27178 16.60630 24091 ft 399 kts 179°
2026-05-04 11:44 47.24386 16.60770 24472 ft 402 kts 180°
2026-05-04 11:45 47.21577 16.60901 24833 ft 406 kts 180°
2026-05-04 11:45 47.18734 16.61022 25139 ft 411 kts 180°
2026-05-04 11:45 47.15863 16.61137 25502 ft 414 kts 181°
2026-05-04 11:45 47.12973 16.61249 25857 ft 417 kts 179°
2026-05-04 11:46 47.10062 16.61366 26209 ft 420 kts 180°
2026-05-04 11:46 47.07132 16.61494 26558 ft 423 kts 180°
2026-05-04 11:46 47.04183 16.61628 26915 ft 425 kts 180°
2026-05-04 11:46 47.01216 16.61763 27256 ft 428 kts 179°
2026-05-04 11:47 46.98231 16.61898 27565 ft 431 kts 180°
2026-05-04 11:47 46.95223 16.62032 27904 ft 434 kts 181°
2026-05-04 11:47 46.92194 16.62164 28221 ft 436 kts 180°
2026-05-04 11:47 46.89150 16.62294 28510 ft 440 kts 180°
2026-05-04 11:48 46.86079 16.62423 28821 ft 442 kts 180°
2026-05-04 11:48 46.83041 16.62645 29146 ft 446 kts 175°
2026-05-04 11:48 46.79944 16.63515 29459 ft 450 kts 165°
2026-05-04 11:48 46.77033 16.65034 29771 ft 452 kts 159°
2026-05-04 11:49 46.74116 16.66777 30060 ft 454 kts 159°
2026-05-04 11:49 46.71144 16.68551 30314 ft 456 kts 159°
2026-05-04 11:49 46.68201 16.70311 30555 ft 459 kts 159°
2026-05-04 11:49 46.65282 16.72054 30780 ft 460 kts 159°
2026-05-04 11:50 46.62308 16.73820 30994 ft 463 kts 159°
2026-05-04 11:50 46.56446 16.77274 31078 ft 442 kts 159°
2026-05-04 11:51 46.50811 16.80589 31080 ft 434 kts 159°
2026-05-04 11:51 46.45215 16.83873 31083 ft 434 kts 159°
2026-05-04 11:52 46.39623 16.87155 31085 ft 433 kts 159°
2026-05-04 11:52 46.34034 16.90435 31089 ft 433 kts 159°
2026-05-04 11:53 46.28447 16.93711 31080 ft 433 kts 159°
2026-05-04 11:53 46.22815 16.96772 31079 ft 432 kts 166°
2026-05-04 11:55 45.99635 17.06050 31085 ft 432 kts 165°
2026-05-04 11:56 45.93838 17.08361 31091 ft 432 kts 165°
2026-05-04 11:56 45.88040 17.10676 31085 ft 432 kts 165°
2026-05-04 11:57 45.82245 17.12981 31082 ft 432 kts 165°
2026-05-04 11:57 45.77423 17.14899 31087 ft 433 kts 165°
2026-05-04 11:58 45.71615 17.17211 31084 ft 433 kts 165°
2026-05-04 11:58 45.64858 17.19892 31090 ft 434 kts 165°
2026-05-04 11:59 45.59983 17.21808 31088 ft 434 kts 165°
2026-05-04 11:59 45.54157 17.24087 31093 ft 434 kts 165°
2026-05-04 12:00 45.48335 17.26369 31091 ft 434 kts 165°
2026-05-04 12:00 45.45454 17.27503 30968 ft 424 kts 165°
2026-05-04 12:00 45.42629 17.28616 30844 ft 419 kts 165°
2026-05-04 12:00 45.39824 17.29718 30719 ft 417 kts 165°
2026-05-04 12:01 45.37024 17.30811 30613 ft 417 kts 165°
2026-05-04 12:01 45.34262 17.31888 30489 ft 417 kts 165°
2026-05-04 12:02 45.17537 17.38389 29671 ft 412 kts 165°
2026-05-04 12:03 45.14824 17.39442 29289 ft 408 kts 165°
2026-05-04 12:03 45.12107 17.40524 28853 ft 404 kts 163°
2026-05-04 12:03 45.09438 17.41715 28431 ft 400 kts 162°
2026-05-04 12:03 45.06815 17.42980 28006 ft 397 kts 161°
2026-05-04 12:04 45.04224 17.44271 27587 ft 393 kts 161°
2026-05-04 12:04 45.01656 17.45552 27159 ft 390 kts 161°
2026-05-04 12:04 44.99103 17.46805 26743 ft 387 kts 161°
2026-05-04 12:04 44.96561 17.48035 26317 ft 385 kts 161°
2026-05-04 12:05 44.94034 17.49243 25867 ft 383 kts 161°
2026-05-04 12:05 44.91517 17.50437 25442 ft 380 kts 161°
2026-05-04 12:05 44.89013 17.51616 24988 ft 379 kts 161°
2026-05-04 12:05 44.86516 17.52790 24538 ft 378 kts 161°
2026-05-04 12:06 44.84023 17.53960 24081 ft 377 kts 161°
2026-05-04 12:06 44.81542 17.55127 23606 ft 376 kts 161°
2026-05-04 12:06 44.79068 17.56291 23108 ft 374 kts 161°
2026-05-04 12:06 44.76611 17.57446 22660 ft 371 kts 161°
2026-05-04 12:07 44.74172 17.58594 22192 ft 368 kts 161°
2026-05-04 12:07 44.71752 17.59737 21761 ft 366 kts 161°
2026-05-04 12:07 44.69344 17.60878 21324 ft 364 kts 161°
2026-05-04 12:07 44.66950 17.62010 20892 ft 362 kts 161°
2026-05-04 12:08 44.64567 17.63135 20462 ft 360 kts 161°
2026-05-04 12:08 44.62197 17.64248 20032 ft 359 kts 160°
2026-05-04 12:08 44.59832 17.65352 19603 ft 357 kts 160°
2026-05-04 12:08 44.57476 17.66448 19179 ft 356 kts 160°
2026-05-04 12:09 44.55127 17.67545 18755 ft 356 kts 160°
2026-05-04 12:09 44.52783 17.68641 18322 ft 355 kts 160°
2026-05-04 12:09 44.50447 17.69736 17873 ft 353 kts 160°
2026-05-04 12:09 44.48123 17.70824 17454 ft 351 kts 160°
2026-05-04 12:10 44.45816 17.71900 17050 ft 349 kts 160°
2026-05-04 12:10 44.43521 17.72965 16641 ft 347 kts 160°
2026-05-04 12:10 44.41234 17.74028 16234 ft 346 kts 160°
2026-05-04 12:10 44.38958 17.75084 15833 ft 344 kts 160°
2026-05-04 12:11 44.36714 17.76221 15437 ft 342 kts 153°
2026-05-04 12:11 44.34612 17.77727 15044 ft 338 kts 151°
2026-05-04 12:11 44.32536 17.79231 14656 ft 335 kts 151°
2026-05-04 12:11 44.30474 17.80721 14270 ft 333 kts 151°
2026-05-04 12:12 44.28417 17.82201 13880 ft 332 kts 151°
2026-05-04 12:12 44.26374 17.83672 13468 ft 330 kts 151°
2026-05-04 12:12 44.24361 17.85122 13077 ft 327 kts 151°
2026-05-04 12:12 44.22372 17.86552 12689 ft 325 kts 151°
2026-05-04 12:13 44.20343 17.88010 12294 ft 323 kts 151°
2026-05-04 12:14 44.06591 17.97851 9451 ft 315 kts 152°
2026-05-04 12:15 44.04639 17.99240 8937 ft 315 kts 153°
2026-05-04 12:15 44.02689 18.00519 8790 ft 303 kts 155°
2026-05-04 12:15 44.00823 18.01730 8736 ft 290 kts 153°
2026-05-04 12:15 43.99064 18.02962 8664 ft 274 kts 151°
2026-05-04 12:16 43.97457 18.04198 8501 ft 255 kts 149°
2026-05-04 12:16 43.95869 18.05186 8108 ft 248 kts 164°
2026-05-04 12:16 43.94186 18.05603 7599 ft 245 kts 171°
2026-05-04 12:16 43.92614 18.06389 7067 ft 241 kts 137°
2026-05-04 12:17 43.91671 18.08180 6890 ft 224 kts 118°
2026-05-04 12:17 43.90945 18.10070 6485 ft 222 kts 115°
2026-05-04 12:17 43.90280 18.11991 6027 ft 219 kts 114°
2026-05-04 12:17 43.89630 18.13886 5512 ft 215 kts 114°
2026-05-04 12:18 43.88969 18.15696 5008 ft 206 kts 115°
2026-05-04 12:18 43.88322 18.17435 4508 ft 201 kts 115°
2026-05-04 12:18 43.87686 18.19144 3996 ft 198 kts 115°
2026-05-04 12:18 43.87064 18.20813 3575 ft 191 kts 116°
2026-05-04 12:19 43.86475 18.22392 3301 ft 178 kts 116°
2026-05-04 12:19 43.85923 18.23871 3042 ft 168 kts 116°
2026-05-04 12:19 43.85409 18.25247 2809 ft 159 kts 115°
2026-05-04 12:19 43.84910 18.26576 2574 ft 152 kts 116°
2026-05-04 12:20 43.84413 18.27876 2343 ft 154 kts 116°
2026-05-04 12:20 43.83933 18.29191 2123 ft 152 kts 115°
2026-05-04 12:20 43.83452 18.30497 1937 ft 153 kts 116°
2026-05-04 12:20 43.82959 18.31811 1714 ft 154 kts 117°
2026-05-04 12:21 43.82490 18.33062 1674 ft 127 kts 117°
2026-05-04 12:21 43.82226 18.33773 1689 ft 39 kts 117°
2026-05-04 12:21 43.82153 18.33965 1691 ft 19 kts 117°
2026-05-04 12:21 43.82097 18.34112 1694 ft 17 kts 117°
2026-05-04 12:22 43.82046 18.34250 1694 ft 15 kts 117°
2026-05-04 12:22 43.82004 18.34362 1700 ft 15 kts 117°
2026-05-04 12:22 43.81956 18.34489 1703 ft 13 kts 117°
2026-05-04 12:22 43.81964 18.34594 1707 ft 14 kts 43°
2026-05-04 12:23 43.82073 18.34599 1707 ft 18 kts 329°
2026-05-04 12:23 43.82150 18.34447 1702 ft 22 kts 299°
2026-05-04 12:23 43.82224 18.34251 1698 ft 24 kts 297°
2026-05-04 12:23 43.82289 18.34077 1695 ft 21 kts 297°
2026-05-04 12:24 43.82357 18.33891 1691 ft 23 kts 296°
2026-05-04 12:24 43.82415 18.33736 1685 ft 16 kts 297°
2026-05-04 12:24 43.82450 18.33654 1688 ft 7 kts 322°
2026-05-04 12:24 43.82496 18.33671 1692 ft 5 kts 26°
2026-05-04 12:25 43.82515 18.33684 1688 ft 1 kts 28°
2026-05-04 12:25 43.82517 18.33686 1687 ft 0 kts 28°